Time,TemperatureF,DewpointF,PressureIn,WindDirection,WindDirectionDegrees,WindSpeedMPH,WindSpeedGustMPH,Humidity,HourlyPrecipIn,Conditions,Clouds,dailyrainin,SoftwareType,DateUTC
2013-12-26 00:03:00,18.0,-99.9,-100.00,West,280,9.0,11.0,-999,-99.99,,,-99.99,,2013-12-26 06:03:00,
2013-12-26 00:22:00,18.0,-99.9,-100.00,WNW,290,10.0,11.0,-999,-99.99,,,-99.99,,2013-12-26 06:22:00,
2013-12-26 00:33:00,18.0,-99.9,-100.00,WNW,290,10.0,11.0,-999,-99.99,,,-99.99,,2013-12-26 06:33:00,
2013-12-26 00:52:00,18.0,-99.9,-100.00,WNW,300,10.0,11.0,-999,-99.99,,,-99.99,,2013-12-26 06:52:00,
2013-12-26 01:01:00,18.0,-99.9,-100.00,WNW,300,10.0,11.0,-999,-99.99,,,-99.99,,2013-12-26 07:01:00,
2013-12-26 01:22:00,17.0,-99.9,-100.00,WNW,300,10.0,13.0,-999,-99.99,,,-99.99,,2013-12-26 07:22:00,
2013-12-26 01:32:00,17.0,-99.9,-100.00,WNW,300,10.0,13.0,-999,-99.99,,,-99.99,,2013-12-26 07:32:00,
2013-12-26 01:53:00,17.0,-99.9,-100.00,WNW,290,11.0,13.0,-999,-99.99,,,-99.99,,2013-12-26 07:53:00,
2013-12-26 02:22:00,16.0,-99.9,-100.00,WNW,300,11.0,13.0,-999,-99.99,,,-99.99,,2013-12-26 08:22:00,
2013-12-26 02:32:00,16.0,-99.9,-100.00,WNW,300,11.0,13.0,-999,-99.99,,,-99.99,,2013-12-26 08:32:00,
2013-12-26 02:53:00,16.0,-99.9,-100.00,WNW,290,14.0,15.0,-999,-99.99,,,-99.99,,2013-12-26 08:53:00,
2013-12-26 03:02:00,16.0,-99.9,-100.00,WNW,290,14.0,15.0,-999,-99.99,,,-99.99,,2013-12-26 09:02:00,
2013-12-26 03:22:00,17.0,-99.9,-100.00,WNW,300,13.0,14.0,-999,-99.99,,,-99.99,,2013-12-26 09:22:00,
2013-12-26 03:33:00,17.0,-99.9,-100.00,WNW,300,13.0,14.0,-999,-99.99,,,-99.99,,2013-12-26 09:33:00,
2013-12-26 04:22:00,16.0,-99.9,-100.00,NW,320,14.0,17.0,-999,-99.99,,,-99.99,,2013-12-26 10:22:00,
2013-12-26 04:32:00,16.0,-99.9,-100.00,NW,320,14.0,17.0,-999,-99.99,,,-99.99,,2013-12-26 10:32:00,
2013-12-26 04:53:00,15.0,-99.9,-100.00,NW,320,14.0,17.0,-999,-99.99,,,-99.99,,2013-12-26 10:53:00,
2013-12-26 05:02:00,15.0,-99.9,-100.00,NW,320,14.0,17.0,-999,-99.99,,,-99.99,,2013-12-26 11:02:00,
2013-12-26 05:22:00,13.0,-99.9,-100.00,WNW,300,14.0,15.0,-999,-99.99,,,-99.99,,2013-12-26 11:22:00,
2013-12-26 05:33:00,13.0,-99.9,-100.00,WNW,300,14.0,15.0,-999,-99.99,,,-99.99,,2013-12-26 11:33:00,
2013-12-26 05:52:00,9.0,-99.9,-100.00,NNW,330,2.0,3.0,-999,-99.99,,,-99.99,,2013-12-26 11:52:00,
2013-12-26 06:02:00,9.0,-99.9,-100.00,NNW,330,2.0,3.0,-999,-99.99,,,-99.99,,2013-12-26 12:02:00,
2013-12-26 06:22:00,10.0,-99.9,-100.00,North,0,0.0,0.0,-999,-99.99,,,-99.99,,2013-12-26 12:22:00,
2013-12-26 06:32:00,10.0,-99.9,-100.00,North,0,0.0,0.0,-999,-99.99,,,-99.99,,2013-12-26 12:32:00,
2013-12-26 06:53:00,9.0,-99.9,-100.00,NW,310,6.0,7.0,-999,-99.99,,,-99.99,,2013-12-26 12:53:00,
2013-12-26 07:22:00,6.0,-99.9,-100.00,North,0,0.0,0.0,-999,-99.99,,,-99.99,,2013-12-26 13:22:00,
2013-12-26 07:32:00,6.0,-99.9,-100.00,North,0,0.0,0.0,-999,-99.99,,,-99.99,,2013-12-26 13:32:00,
2013-12-26 07:53:00,8.0,-99.9,-100.00,North,0,0.0,0.0,-999,-99.99,,,-99.99,,2013-12-26 13:53:00,
2013-12-26 08:02:00,8.0,-99.9,-100.00,North,0,0.0,0.0,-999,-99.99,,,-99.99,,2013-12-26 14:02:00,
2013-12-26 08:22:00,8.0,-99.9,-100.00,North,0,0.0,0.0,-999,-99.99,,,-99.99,,2013-12-26 14:22:00,
2013-12-26 08:52:00,12.0,-99.9,-100.00,WSW,250,15.0,17.0,-999,-99.99,,,-99.99,,2013-12-26 14:52:00,
2013-12-26 09:03:00,12.0,-99.9,-100.00,WSW,250,15.0,17.0,-999,-99.99,,,-99.99,,2013-12-26 15:03:00,
2013-12-26 09:22:00,15.0,-99.9,-100.00,WSW,250,10.0,11.0,-999,-99.99,,,-99.99,,2013-12-26 15:22:00,
2013-12-26 09:34:00,15.0,-99.9,-100.00,WSW,250,10.0,11.0,-999,-99.99,,,-99.99,,2013-12-26 15:34:00,
2013-12-26 09:54:00,20.0,-99.9,-100.00,West,270,9.0,10.0,-999,-99.99,,,-99.99,,2013-12-26 15:54:00,
2013-12-26 10:03:00,20.0,-99.9,-100.00,West,270,9.0,10.0,-999,-99.99,,,-99.99,,2013-12-26 16:03:00,
2013-12-26 10:23:00,20.0,-99.9,-100.00,West,280,10.0,11.0,-999,-99.99,,,-99.99,,2013-12-26 16:23:00,
2013-12-26 10:33:00,20.0,-99.9,-100.00,West,280,10.0,11.0,-999,-99.99,,,-99.99,,2013-12-26 16:33:00,
2013-12-26 10:53:00,16.0,-99.9,-100.00,WNW,300,10.0,13.0,-999,-99.99,,,-99.99,,2013-12-26 16:53:00,
2013-12-26 11:02:00,16.0,-99.9,-100.00,WNW,300,10.0,13.0,-999,-99.99,,,-99.99,,2013-12-26 17:02:00,
2013-12-26 11:23:00,21.0,-99.9,-100.00,WNW,290,10.0,10.0,-999,-99.99,,,-99.99,,2013-12-26 17:23:00,
2013-12-26 11:33:00,21.0,-99.9,-100.00,WNW,290,10.0,10.0,-999,-99.99,,,-99.99,,2013-12-26 17:33:00,
2013-12-26 11:43:00,-999.0,-99.9,-100.00,WNW,300,6.0,6.0,-999,-99.99,,,-99.99,,2013-12-26 17:43:00,
2013-12-26 11:53:00,-999.0,-99.9,-100.00,WNW,300,6.0,6.0,-999,-99.99,,,-99.99,,2013-12-26 17:53:00,
2013-12-26 12:02:00,-999.0,-99.9,-100.00,WNW,300,6.0,6.0,-999,-99.99,,,-99.99,,2013-12-26 18:02:00,
2013-12-26 12:42:00,-999.0,-99.9,-100.00,West,280,9.0,10.0,-999,-99.99,,,-99.99,,2013-12-26 18:42:00,
2013-12-26 12:52:00,-999.0,-99.9,-100.00,West,280,9.0,10.0,-999,-99.99,,,-99.99,,2013-12-26 18:52:00,
2013-12-26 13:02:00,-999.0,-99.9,-100.00,West,280,9.0,10.0,-999,-99.99,,,-99.99,,2013-12-26 19:02:00,
2013-12-26 13:22:00,21.0,-99.9,-100.00,WSW,250,8.0,8.0,-999,-99.99,,,-99.99,,2013-12-26 19:22:00,
2013-12-26 13:32:00,21.0,-99.9,-100.00,WSW,250,8.0,8.0,-999,-99.99,,,-99.99,,2013-12-26 19:32:00,
2013-12-26 13:52:00,19.0,-99.9,-100.00,West,270,8.0,9.0,-999,-99.99,,,-99.99,,2013-12-26 19:52:00,
2013-12-26 14:02:00,19.0,-99.9,-100.00,West,270,8.0,9.0,-999,-99.99,,,-99.99,,2013-12-26 20:02:00,
2013-12-26 14:22:00,18.0,-99.9,-100.00,West,270,8.0,9.0,-999,-99.99,,,-99.99,,2013-12-26 20:22:00,
2013-12-26 14:33:00,18.0,-99.9,-100.00,West,270,8.0,9.0,-999,-99.99,,,-99.99,,2013-12-26 20:33:00,
2013-12-26 14:52:00,19.0,-99.9,-100.00,West,260,8.0,9.0,-999,-99.99,,,-99.99,,2013-12-26 20:52:00,
2013-12-26 15:02:00,19.0,-99.9,-100.00,West,260,8.0,9.0,-999,-99.99,,,-99.99,,2013-12-26 21:02:00,
2013-12-26 15:22:00,16.0,-99.9,-100.00,West,270,10.0,11.0,-999,-99.99,,,-99.99,,2013-12-26 21:22:00,
2013-12-26 15:33:00,16.0,-99.9,-100.00,West,270,10.0,11.0,-999,-99.99,,,-99.99,,2013-12-26 21:33:00,
2013-12-26 15:54:00,15.0,-99.9,-100.00,West,260,9.0,10.0,-999,-99.99,,,-99.99,,2013-12-26 21:54:00,
2013-12-26 16:03:00,15.0,-99.9,-100.00,West,260,9.0,10.0,-999,-99.99,,,-99.99,,2013-12-26 22:03:00,
2013-12-26 16:23:00,15.0,-99.9,-100.00,West,260,9.0,9.0,-999,-99.99,,,-99.99,,2013-12-26 22:23:00,
2013-12-26 16:33:00,15.0,-99.9,-100.00,West,260,9.0,9.0,-999,-99.99,,,-99.99,,2013-12-26 22:33:00,
2013-12-26 16:52:00,14.0,-99.9,-100.00,WSW,240,8.0,9.0,-999,-99.99,,,-99.99,,2013-12-26 22:52:00,
2013-12-26 17:03:00,14.0,-99.9,-100.00,WSW,240,8.0,9.0,-999,-99.99,,,-99.99,,2013-12-26 23:03:00,
2013-12-26 17:22:00,13.0,-99.9,-100.00,SW,220,6.0,7.0,-999,-99.99,,,-99.99,,2013-12-26 23:22:00,
2013-12-26 17:33:00,13.0,-99.9,-100.00,SW,220,6.0,7.0,-999,-99.99,,,-99.99,,2013-12-26 23:33:00,
2013-12-26 18:22:00,13.0,-99.9,-100.00,North,0,0.0,0.0,-999,-99.99,,,-99.99,,2013-12-27 00:22:00,
2013-12-26 18:32:00,13.0,-99.9,-100.00,North,0,0.0,0.0,-999,-99.99,,,-99.99,,2013-12-27 00:32:00,
2013-12-26 18:52:00,12.0,-99.9,-100.00,North,0,0.0,0.0,-999,-99.99,,,-99.99,,2013-12-27 00:52:00,
2013-12-26 19:02:00,12.0,-99.9,-100.00,North,0,0.0,0.0,-999,-99.99,,,-99.99,,2013-12-27 01:02:00,
2013-12-26 19:22:00,13.0,-99.9,-100.00,North,0,0.0,0.0,-999,-99.99,,,-99.99,,2013-12-27 01:22:00,
2013-12-26 19:52:00,13.0,-99.9,-100.00,North,0,0.0,0.0,-999,-99.99,,,-99.99,,2013-12-27 01:52:00,
2013-12-26 20:02:00,13.0,-99.9,-100.00,North,0,0.0,0.0,-999,-99.99,,,-99.99,,2013-12-27 02:02:00,
2013-12-26 20:22:00,13.0,-99.9,-100.00,North,0,0.0,0.0,-999,-99.99,,,-99.99,,2013-12-27 02:22:00,
2013-12-26 20:32:00,13.0,-99.9,-100.00,North,0,0.0,0.0,-999,-99.99,,,-99.99,,2013-12-27 02:32:00,
2013-12-26 20:52:00,13.0,-99.9,-100.00,North,0,0.0,3.0,-999,-99.99,,,-99.99,,2013-12-27 02:52:00,
2013-12-26 21:02:00,13.0,-99.9,-100.00,North,0,0.0,3.0,-999,-99.99,,,-99.99,,2013-12-27 03:02:00,
2013-12-26 21:22:00,13.0,-99.9,-100.00,North,0,0.0,0.0,-999,-99.99,,,-99.99,,2013-12-27 03:22:00,
2013-12-26 21:33:00,13.0,-99.9,-100.00,North,0,0.0,0.0,-999,-99.99,,,-99.99,,2013-12-27 03:33:00,
2013-12-26 21:53:00,13.0,-99.9,-100.00,North,0,0.0,0.0,-999,-99.99,,,-99.99,,2013-12-27 03:53:00,
2013-12-26 22:03:00,13.0,-99.9,-100.00,North,0,0.0,0.0,-999,-99.99,,,-99.99,,2013-12-27 04:03:00,
2013-12-26 22:23:00,13.0,-99.9,-100.00,North,0,0.0,0.0,-999,-99.99,,,-99.99,,2013-12-27 04:23:00,
2013-12-26 22:33:00,13.0,-99.9,-100.00,North,0,0.0,0.0,-999,-99.99,,,-99.99,,2013-12-27 04:33:00,
2013-12-26 22:53:00,11.0,-99.9,-100.00,North,0,0.0,0.0,-999,-99.99,,,-99.99,,2013-12-27 04:53:00,
2013-12-26 23:03:00,11.0,-99.9,-100.00,North,0,0.0,0.0,-999,-99.99,,,-99.99,,2013-12-27 05:03:00,
2013-12-26 23:22:00,10.0,-99.9,-100.00,North,0,0.0,0.0,-999,-99.99,,,-99.99,,2013-12-27 05:22:00,
2013-12-26 23:33:00,10.0,-99.9,-100.00,North,0,0.0,0.0,-999,-99.99,,,-99.99,,2013-12-27 05:33:00,
2013-12-26 23:52:00,9.0,-99.9,-100.00,North,0,0.0,0.0,-999,-99.99,,,-99.99,,2013-12-27 05:52:00,